sat.trackr.live / text

‹ back to catalog

STARLINK-4632

NORAD 53679 · 2022-105AH

PAYLOAD ACTIVE UNKNOWN

§ Identity

Operator
Country
US
Launch date
2022-08-31
Launch site
AFWTR
Launch vehicle
Mass (kg)
RCS (m²)

Purposes: comms

External: N2YO · Heavens-Above · Gunter

§ Orbital elements

Epoch: 2026-09-20T14:36:34.322976Z

Period
93.91 min
Inclination
97.2842°
Eccentricity
0.0001833
Mean motion
15.33438727 rev/d
Perigee alt
464.3 km
Apogee alt
466.8 km
Semi-major
6,843.7 km
B*
1.0775e-4
RAAN
140.2830°
Arg perigee
82.0913°
Mean anomaly
278.0538°
Rev number
22,275

§ Raw data

STARLINK-46321 53679U 22105AH  26263.60873059  .00003405  00000+0  10775-3 0  99912 53679  97.2842 140.2830 0001833  82.0913 278.0538 15.33438727222754

JSON: /api/v1/satellites/53679 · /tle

For live sub-satellite position, see the globe view (requires WebGL).

§ Visibility from observer

Set your observer location to see the next 7 days of passes ≥ 10°. The values pass through the URL so the page stays shareable.

No JS? Fill the form by hand. The geolocation button needs JavaScript.